Overview Statistics Trail Chart Weather Telemetry Raw packets
 

This is the latest recevied weather packets stored in our database for station/object W6MAF. If no packets are shown the sender has not sent any weather packets the latest 10 day(s).

<< 6 7 8 9 10 11 12 >>
Time Temp. Humidity Pressure Rain* Wind** Luminosity Snow
1788630619 23.89° C 6% - 0 mm 7.6 m/s, 162° - -
1788630318 23.89° C 6% - 0 mm 5.36 m/s, 167° - -
1788630020 23.33° C 6% - 0 mm 6.71 m/s, 167° - -
1788629723 23.33° C 6% - 0 mm 8.94 m/s, 170° - -
1788629425 23.33° C 6% - 0 mm 9.39 m/s, 149° - -
1788629127 23.33° C 6% - 0 mm 8.49 m/s, 172° - -
1788628830 23.33° C 6% - 0 mm 7.6 m/s, 177° - -
1788628529 23.33° C 6% - 0 mm 8.05 m/s, 162° - -
1788627933 23.33° C 6% - 0 mm 6.71 m/s, 160° - -
1788627636 23.33° C 6% - 0 mm 8.94 m/s, 193° - -
1788627040 22.78° C 6% - 0 mm 6.26 m/s, 174° - -
1788626739 22.78° C 6% - 0 mm 7.15 m/s, 179° - -
1788626442 22.78° C 6% - 0 mm 8.05 m/s, 170° - -
1788626144 22.22° C 6% - 0 mm 7.15 m/s, 187° - -
1788625846 22.22° C 7% - 0 mm 7.6 m/s, 184° - -
1788625549 22.22° C 7% - 0 mm 8.05 m/s, 191° - -
1788625251 22.22° C 7% - 0 mm 6.71 m/s, 183° - -
1788624950 22.22° C 8% - 0 mm 6.71 m/s, 204° - -
1788624652 21.67° C 8% - 0 mm 4.92 m/s, 191° - -
1788624355 21.67° C 9% - 0 mm 8.05 m/s, 162° - -
1788624057 21.67° C 9% - 0 mm 7.6 m/s, 176° - -
1788623759 21.11° C 10% - 0 mm 6.26 m/s, 184° - -
1788623462 21.11° C 11% - 0 mm 6.71 m/s, 179° - -
1788623161 20.56° C 12% - 0 mm 6.26 m/s, 152° - -
1788622863 20.56° C 12% - 0 mm 7.6 m/s, 162° - -

* Rain latest hour (hover to see other rain measurements)
** Current wind speed in m/s (hover to see current wind gust speed)